Wolf Creek Pass, CO

6:39 PM MDT on July 26, 2017 (GMT -0600)
Wolf Creek Pass

Weather History for KCPW - September, 2013

Change the Weather History Date:

Sunday, September 15, 2013

  Actual Average (KALS) Record (KALS)
Temperature  
Mean Temperature 40 °F -  
Max Temperature 46 °F 72 °F 83 °F (1956)
Min Temperature 35 °F 36 °F 24 °F (1987)
Degree Days  
Heating Degree Days 24    
Moisture  
Dew Point 37 °F    
Average Humidity 92    
Maximum Humidity 100    
Minimum Humidity 71    
Precipitation  
Precipitation 0.09 in - - ()
Sea Level Pressure  
Sea Level Pressure 30.50 in    
Wind  
Wind Speed 7 mph (SW)    
Max Wind Speed 16 mph    
Max Gust Speed 23 mph    
Visibility 7 miles    
Events Fog , Rain , Thunderstorm    
Averages and records for this station are not official NWS values.
T = Trace of Precipitation, MM = Missing Value Source: NWS Daily Summary

Daily Weather History Graph

Daily Weather History Graph

Search for Another Location

Airport or City:

Trip Planner

Search our weather history database for the weather conditions in past years. The results will help you decide how hot, cold, wet, or windy it might be!

Date:

Astronomy

Sep. 15, 2013 Rise Set
Actual Time 6:49 AM MDT 7:14 PM MDT
Civil Twilight 6:23 AM MDT 7:40 PM MDT
Nautical Twilight 5:52 AM MDT 8:11 PM MDT
Astronomical Twilight 5:21 AM MDT 8:42 PM MDT
Moon 4:40 PM MDT (9/15) 2:34 AM MDT (9/15)
Length of Visible Light 13h 17m
Length of Day
12h 25m
Waxing Gibbous, 82% of the Moon is Illuminated
Sep 15
Waxing Gibbous
Sep 19
Full
Sep 26
Last Quarter
Oct 4
New
Oct 11
First Quarter

Hourly Weather History & Observations

Time (MDT) Temp. Windchill Dew Point Humidity Pressure Visibility Wind Dir Wind Speed Gust Speed Precip Events Conditions
12:03 AM 35.6 °F 28.6 °F 35.6 °F 100% 30.44 in 10.0 mi SW 9.2 mph - N/A Thunderstorm Overcast
12:23 AM 35.6 °F 29.9 °F 35.6 °F 100% 30.45 in 2.5 mi SSW 6.9 mph - N/A Rain Light Rain
12:43 AM 35.6 °F 28.0 °F 35.6 °F 100% 30.44 in 1.2 mi SSW 10.4 mph 17.3 mph 0.02 in Rain , Thunderstorm Light Thunderstorms and Rain
1:03 AM 35.6 °F 29.2 °F 35.6 °F 100% 30.44 in 2.0 mi SW 8.1 mph - N/A Thunderstorm Overcast
1:23 AM 35.6 °F - 35.6 °F 100% 30.44 in 0.5 mi Calm Calm - N/A Fog Fog
1:43 AM 35.6 °F 31.7 °F 35.6 °F 100% 30.43 in 0.2 mi SW 4.6 mph - N/A Fog , Thunderstorm Fog
2:03 AM 35.6 °F 30.7 °F 35.6 °F 100% 30.44 in 0.2 mi SSW 5.8 mph - N/A Rain , Thunderstorm Rain
2:23 AM 35.6 °F 30.7 °F 35.6 °F 100% 30.43 in 0.2 mi SW 5.8 mph - 0.03 in Rain Light Rain
2:43 AM 35.6 °F 29.2 °F 35.6 °F 100% 30.44 in 0.5 mi SW 8.1 mph - 0.04 in   Light Drizzle
3:03 AM 35.6 °F 32.8 °F 35.6 °F 100% 30.43 in 0.2 mi SSW 3.5 mph - N/A Rain Light Rain
3:23 AM 35.6 °F 32.8 °F 35.6 °F 100% 30.43 in 0.2 mi SSW 3.5 mph - N/A Fog Fog
3:43 AM 35.6 °F 29.9 °F 35.6 °F 100% 30.43 in 0.2 mi SSW 6.9 mph - N/A Fog Fog
4:03 AM 35.6 °F 29.2 °F 35.6 °F 100% 30.44 in 10.0 mi SW 8.1 mph - N/A   Overcast
4:23 AM 35.6 °F 28.6 °F 35.6 °F 100% 30.44 in 10.0 mi SW 9.2 mph - N/A   Overcast
4:43 AM 35.6 °F 29.2 °F 35.6 °F 100% 30.44 in 10.0 mi SSW 8.1 mph - N/A   Overcast
5:03 AM 35.6 °F 29.9 °F 35.6 °F 100% 30.44 in 10.0 mi SSW 6.9 mph - N/A   Overcast
5:23 AM 35.6 °F 31.7 °F 35.6 °F 100% 30.44 in 10.0 mi SW 4.6 mph - N/A   Overcast
5:43 AM 35.6 °F 30.7 °F 35.6 °F 100% 30.45 in 10.0 mi SSW 5.8 mph - N/A   Overcast
6:03 AM 35.6 °F 29.9 °F 35.6 °F 100% 30.45 in 10.0 mi SSW 6.9 mph - N/A   Overcast
6:23 AM 35.6 °F 30.7 °F 35.6 °F 100% 30.45 in 10.0 mi SW 5.8 mph - N/A   Overcast
6:43 AM 35.6 °F - 35.6 °F 100% 30.46 in 10.0 mi Calm Calm - N/A   Overcast
7:03 AM 35.6 °F 29.2 °F 35.6 °F 100% 30.46 in 10.0 mi SW 8.1 mph - N/A   Overcast
7:23 AM 35.6 °F 31.7 °F 35.6 °F 100% 30.47 in 10.0 mi SW 4.6 mph - N/A   Overcast
7:43 AM 37.4 °F 34.9 °F 35.6 °F 93% 30.47 in 10.0 mi SW 3.5 mph - N/A   Overcast
8:03 AM 37.4 °F 33.8 °F 35.6 °F 93% 30.48 in 10.0 mi SSW 4.6 mph - N/A   Overcast
8:23 AM 37.4 °F 33.8 °F 37.4 °F 100% 30.48 in 0.2 mi SSW 4.6 mph - N/A Fog Fog
8:43 AM 39.2 °F - 37.4 °F 93% 30.48 in 10.0 mi Calm Calm - N/A   Mostly Cloudy
9:03 AM 39.2 °F - 37.4 °F 93% 30.49 in 10.0 mi Calm Calm - N/A   Mostly Cloudy
9:23 AM 41.0 °F - 37.4 °F 87% 30.50 in 10.0 mi Calm Calm - N/A   Overcast
9:43 AM 39.2 °F - 35.6 °F 87% 30.50 in 10.0 mi Calm Calm - N/A   Overcast
10:03 AM 41.0 °F 36.4 °F 37.4 °F 87% 30.51 in 5.0 mi SSW 6.9 mph - N/A   Overcast
10:23 AM 41.0 °F 37.1 °F 39.2 °F 93% 30.52 in 10.0 mi SSW 5.8 mph - N/A   Overcast
10:43 AM 41.0 °F 37.1 °F 39.2 °F 93% 30.52 in 10.0 mi SSW 5.8 mph - N/A   Overcast
11:03 AM 42.8 °F 38.6 °F 39.2 °F 87% 30.52 in 10.0 mi SSW 6.9 mph - N/A   Overcast
11:23 AM 41.0 °F 36.4 °F 39.2 °F 93% 30.52 in 10.0 mi SSW 6.9 mph - N/A   Overcast
11:43 AM 41.0 °F 37.1 °F 41.0 °F 100% 30.52 in 1.5 mi SSW 5.8 mph - N/A   Overcast
12:03 PM 42.8 °F 38.6 °F 39.2 °F 87% 30.52 in 10.0 mi SSW 6.9 mph - N/A   Overcast
12:23 PM 42.8 °F 40.1 °F 39.2 °F 87% 30.53 in 10.0 mi WSW 4.6 mph - N/A Thunderstorm Overcast
12:43 PM 41.0 °F 36.4 °F 41.0 °F 100% 30.52 in 7.0 mi WSW 6.9 mph - N/A   Overcast
1:03 PM 41.0 °F 36.4 °F 41.0 °F 100% 30.52 in 10.0 mi SW 6.9 mph - N/A Thunderstorm Overcast
1:23 PM 42.8 °F 37.0 °F 41.0 °F 93% 30.53 in 10.0 mi SSW 10.4 mph 18.4 mph N/A Thunderstorm Overcast
1:43 PM 42.8 °F 37.0 °F 41.0 °F 93% 30.52 in 10.0 mi SW 10.4 mph 20.7 mph N/A Thunderstorm Thunderstorm
2:03 PM 44.6 °F 38.8 °F 39.2 °F 81% 30.52 in 10.0 mi SW 11.5 mph 18.4 mph N/A Thunderstorm Thunderstorm
2:23 PM 42.8 °F 38.0 °F 39.2 °F 87% 30.52 in 10.0 mi SSW 8.1 mph - N/A Thunderstorm Mostly Cloudy
2:43 PM 44.6 °F 40.2 °F 39.2 °F 81% 30.52 in 10.0 mi South 8.1 mph - N/A Thunderstorm Overcast
3:03 PM 44.6 °F 39.2 °F 39.2 °F 81% 30.52 in 10.0 mi SSW 10.4 mph 17.3 mph N/A Thunderstorm Overcast
3:23 PM 44.6 °F 38.4 °F 37.4 °F 76% 30.52 in 10.0 mi SW 12.7 mph 19.6 mph N/A Thunderstorm Thunderstorm
3:43 PM 44.6 °F 39.7 °F 37.4 °F 76% 30.51 in 10.0 mi SSW 9.2 mph 18.4 mph N/A Thunderstorm Thunderstorm
4:03 PM 44.6 °F 39.7 °F 37.4 °F 76% 30.51 in - SSW 9.2 mph 19.6 mph N/A Thunderstorm Thunderstorm
4:23 PM 44.6 °F 39.2 °F 37.4 °F 76% 30.51 in - SW 10.4 mph 18.4 mph N/A Thunderstorm Overcast
4:43 PM 44.6 °F 37.4 °F 37.4 °F 76% 30.51 in - SW 16.1 mph 20.7 mph N/A Thunderstorm Thunderstorm
5:03 PM 44.6 °F 38.4 °F 37.4 °F 76% 30.51 in - SSW 12.7 mph 21.9 mph N/A Thunderstorm Thunderstorm
5:23 PM 46.4 °F 41.1 °F 37.4 °F 71% 30.51 in 10.0 mi SSW 11.5 mph 20.7 mph N/A Thunderstorm Scattered Clouds
5:43 PM 46.4 °F 39.8 °F 37.4 °F 71% 30.51 in 10.0 mi SW 16.1 mph 20.7 mph N/A Thunderstorm Thunderstorm
6:03 PM 44.6 °F 38.8 °F 35.6 °F 71% 30.52 in 10.0 mi SW 11.5 mph - N/A Thunderstorm Scattered Clouds
6:23 PM 44.6 °F 38.8 °F 37.4 °F 76% 30.52 in 10.0 mi SW 11.5 mph 16.1 mph N/A Thunderstorm Mostly Cloudy
6:43 PM 42.8 °F 35.4 °F 37.4 °F 81% 30.52 in 10.0 mi SW 15.0 mph - N/A Thunderstorm Mostly Cloudy
7:03 PM 42.8 °F 37.0 °F 37.4 °F 81% 30.53 in 10.0 mi SW 10.4 mph - N/A Thunderstorm Clear
7:23 PM 41.0 °F 33.9 °F 37.4 °F 87% 30.54 in 10.0 mi SW 12.7 mph - N/A Thunderstorm Thunderstorm
7:43 PM 41.0 °F 32.8 °F 37.4 °F 87% 30.52 in 10.0 mi SW 16.1 mph - N/A Thunderstorm Thunderstorm
8:03 PM 41.0 °F 33.9 °F 39.2 °F 93% 30.54 in 10.0 mi SW 12.7 mph 17.3 mph N/A Thunderstorm Thunderstorm
8:23 PM 41.0 °F 34.3 °F 39.2 °F 93% 30.54 in 10.0 mi SW 11.5 mph - N/A Thunderstorm Scattered Clouds
8:43 PM 41.0 °F 34.7 °F 41.0 °F 100% 30.55 in 10.0 mi SW 10.4 mph - N/A Thunderstorm Thunderstorm
9:03 PM 41.0 °F 34.7 °F 41.0 °F 100% 30.55 in 3.0 mi SW 10.4 mph - N/A Thunderstorm Overcast
9:23 PM 39.2 °F 34.2 °F 39.2 °F 100% 30.56 in 10.0 mi SSW 6.9 mph - N/A   Overcast
9:43 PM 39.2 °F 33.0 °F 37.4 °F 93% 30.57 in 10.0 mi SSW 9.2 mph - N/A Thunderstorm Thunderstorm
10:03 PM 37.4 °F 28.2 °F 37.4 °F 100% 30.57 in 0.8 mi SW 16.1 mph 23.0 mph N/A Rain , Thunderstorm Rain
10:23 PM 37.4 °F 30.8 °F 37.4 °F 100% 30.57 in 0.5 mi WSW 9.2 mph - 0.01 in Rain , Thunderstorm Thunderstorms and Rain
10:43 PM 37.4 °F 30.8 °F 37.4 °F 100% 30.57 in 0.8 mi SSW 9.2 mph - 0.04 in Rain Rain
11:03 PM 37.4 °F 32.1 °F 37.4 °F 100% 30.57 in 3.0 mi SSW 6.9 mph - N/A Thunderstorm Overcast
11:23 PM 37.4 °F 30.3 °F 37.4 °F 100% 30.58 in 10.0 mi SW 10.4 mph - N/A Rain Light Rain
11:43 PM 37.4 °F 28.5 °F 37.4 °F 100% 30.57 in 5.0 mi WSW 15.0 mph 20.7 mph 0.01 in   Heavy Drizzle